Location: Newark
(23.5328°S, 46.7919°W)
Time: 18:46:35
(UTC+00:00)

N. Korean satellite - Pass Details

Date: 06 March 2021
Orbit: 452 x 499 km, 97.2° (Epoch: 20 April)

Event Time Altitude Azimuth Distance (km) Brightness Sun altitude
Rises 07:29:06 0° 29° (NNE) 2,576 10.4 -22.4°
Reaches altitude 10° 07:31:17 10° 38° (NE) 1,704 9.6 -21.9°
Maximum altitude 07:34:38 34° 104° (ESE) 849 8.4 -21.1°
Drops below altitude 10° 07:38:02 10° 170° (S) 1,727 9.7 -20.4°
Sets 07:40:15 0° 179° (S) 2,617 10.5 -19.9°
